Location: Falniów
(50.3639°N, 19.9642°E)
Time: 03:29:36
(UTC+00:00)

Gblst 52 Del rocket - Visible Passes

Search period start: 21 April 2026 00:00
Search period end: 01 May 2026 00:00
Orbit: 805 x 1364 km, 51.5° (Epoch: 20 April)

Date Brightness Start Highest point End Pass type
(mag) Time Alt. Az. Time Alt. Az. Time Alt. Az.
21 Apr 5.3 01:07:08 10° WNW 01:13:48 38° SW 01:21:11 10° SSE visible
21 Apr 4.6 18:40:08 10° SW 18:45:53 53° SSE 18:52:28 10° ENE visible
21 Apr 4.6 20:31:17 10° W 20:37:35 85° N 20:44:54 10° E visible
21 Apr 4.7 22:23:03 10° WNW 22:29:47 90° NNE 22:37:35 10° ESE visible
22 Apr 5.0 00:14:47 10° WNW 00:21:38 50° SW 00:29:20 10° SE visible
22 Apr 6.1 02:07:52 10° W 02:12:35 18° SW 02:17:34 10° SSW visible
22 Apr 4.5 19:39:08 10° WSW 19:45:14 87° SSE 19:52:20 10° ENE visible
22 Apr 4.7 21:30:51 10° W 21:37:22 83° N 21:44:57 10° E visible
22 Apr 4.7 23:22:31 10° WNW 23:29:22 63° SSW 23:32:42 35° SE visible
23 Apr 5.8 01:14:50 10° W 01:25:11 16° S 01:26:57 10° S visible
23 Apr 4.4 18:47:04 10° WSW 18:52:59 73° SSE 18:59:48 10° ENE visible
23 Apr 4.7 20:38:37 10° W 20:44:57 81° N 20:52:19 10° E visible
23 Apr 4.6 22:30:20 10° WNW 22:37:04 77° SSW 22:40:05 40° SE visible
24 Apr 5.6 00:22:15 10° WNW 00:26:53 31° WSW 00:26:53 31° WSW visible
24 Apr 4.6 19:46:25 10° W 19:52:34 83° N 19:59:42 10° E visible
24 Apr 4.6 21:38:09 10° WNW 21:44:43 88° SSW 21:48:52 29° ESE visible
24 Apr 5.1 23:29:52 10° WNW 23:35:43 45° SW 23:35:43 45° SW visible
25 Apr 4.5 18:54:15 10° WSW 19:00:14 89° SSE 19:07:09 10° ENE visible
25 Apr 4.6 20:45:57 10° W 20:52:20 84° N 20:58:02 18° E visible
25 Apr 4.7 22:37:36 10° WNW 22:44:14 59° SSW 22:44:54 57° S visible
26 Apr 6.4 00:30:03 10° W 00:31:46 16° W 00:31:46 16° W visible
26 Apr 4.6 19:53:45 10° W 19:59:57 81° N 20:07:07 10° E visible
26 Apr 4.6 21:45:26 10° WNW 21:51:58 73° SSW 21:54:16 46° SE visible
26 Apr 5.9 23:37:23 10° WNW 23:41:09 26° WSW 23:41:09 26° WSW visible
27 Apr 4.6 19:01:33 10° W 19:07:35 82° N 19:14:31 10° E visible
27 Apr 4.6 20:53:16 10° WNW 20:59:39 85° SSW 21:03:44 28° ESE visible
27 Apr 5.2 22:44:58 10° WNW 22:50:38 41° SW 22:50:38 41° SW visible
28 Apr 4.6 20:01:05 10° W 20:07:19 86° NNE 20:13:17 16° E visible
28 Apr 4.8 21:52:44 10° WNW 21:59:07 55° SSW 22:00:10 50° S visible
28 Apr 6.5 23:45:22 10° W 23:47:04 15° W 23:47:04 15° W visible
29 Apr 4.6 19:08:54 10° W 19:14:57 81° N 19:21:56 10° E visible
29 Apr 4.6 21:00:32 10° WNW 21:06:53 69° SSW 21:09:47 38° SE visible
29 Apr 5.9 22:52:35 10° W 22:56:40 26° WSW 22:56:40 26° WSW visible
30 Apr 4.5 20:08:22 10° WNW 20:14:37 82° SSW 20:19:25 22° ESE visible
30 Apr 5.3 22:00:07 10° WNW 22:06:09 38° SW 22:06:19 38° SW visible
